Regional Weather Roundup
Issued by NWS

Home | Current Version | Previous Version | Graphics & Text | Print | Product List | Glossary On
Versions: 1 2 3 4 5 6 7 8 9 10 11 12 13 14 15 16 17 18 19 20 21 22 23 24 25 26 27 28 29 30 31 32 33 34 35 36 37 38 39 40 41 42 43 44 45 46 47 48 49 50
000
ASUS43 KFSD 060202
RWRSD

WEATHER ROUNDUP FOR SOUTH DAKOTA
NATIONAL WEATHER SERVICE SIOUX FALLS SD
900 PM CDT SUN JUL 05 2015

NOTE: "FAIR" INDICATES FEW OR NO CLOUDS BELOW 12,000 FEET WITH NO
SIGNIFICANT WEATHER AND/OR OBSTRUCTIONS TO VISIBILITY.


SDZ001>005-009-010-012>017-060300-
NORTHWEST AND NORTH CENTRAL SOUTH DAKOTA

CITY           SKY/WX    TMP DP  RH WIND       PRES   REMARKS
BUFFALO          N/A     63  55  75 N10       30.00F
FAITH            N/A     62  59  90 N14       29.96F
MOBRIDGE       CLOUDY    69  66  90 N13       29.90R FOG
$$

SDZ012>016-024>037-041>051-057-063-072>074-060300-
SOUTHWEST AND SOUTH CENTRAL SOUTH DAKOTA

CITY           SKY/WX    TMP DP  RH WIND       PRES   REMARKS
RAPID CTY ARPT CLOUDY    62  60  93 N24G32    30.01S
PIERRE         CLOUDY    73  64  73 N22G31    29.85R
CUSTER         CLOUDY    59  55  87 N12G24    30.09R
ELLSWORTH AFB  RAIN      62  62 100 N17G26    30.02  FOG
PHILIP         LGT RAIN  68  63  84 N22G30    29.91R
PINE RIDGE     CLOUDY    69  61  75 N18G38    29.96R
WINNER         TSTM      69  65  86 W36G52    29.73R FOG
$$

SDZ004>011-016>023-039-040-060300-
NORTHEAST SOUTH DAKOTA

CITY           SKY/WX    TMP DP  RH WIND       PRES   REMARKS
ABERDEEN       CLOUDY    76  65  68 N17       29.81R
WATERTOWN      TSTM      75  67  76 NE17      29.78R
BROOKINGS      PTCLDY    81  72  74 S12       29.77R
SISSETON         N/A     78  68  71 N13       29.78R
$$

SDZ017-020-022-023-036>040-048>070-060300-
SOUTHEAST SOUTH DAKOTA

CITY           SKY/WX    TMP DP  RH WIND       PRES   REMARKS
SIOUX FALLS    CLOUDY    82  73  74 S13       29.75F
HURON          MOCLDY    83  74  74 VRB7      29.74R
MITCHELL       PTCLDY    83  75  77 S8        29.71R
YANKTON        MOCLDY    81  75  83 E7        29.72S
$$

ABBREVIATIONS USED IN REMARKS
   TC - TEMPERATURE IN CELSIUS
  WCI - WIND CHILL INDEX
   HX - HEAT INDEX
  VSB - VISIBILITY



USA.gov is the U.S. government's official web portal to all federal, state and local government web resources and services.